World > North America > United States > Virginia > Macon  

Macon, VA Hourly Weather Updates

Feedback E-mail the Weather

Quick Clicks

Macon, VA Weather Maps

°F °C°F °C
Macon Weather Map
UTC Time: 5/18/2024, 18:59
Your Time:

Macon, VA Regional Weather

Expires:202405181900;;436181
ASUS41 KAKQ 181812
RWRAKQ

REGIONAL WEATHER ROUNDUP
NATIONAL WEATHER SERVICE WAKEFIELD VA
200 PM EDT SAT MAY 18 2024

Note: "fair" indicates few or no clouds below 12,000 feet with no
significant weather and/or obstructions to visibility. * = Denotes
station may not report precipitation (e.g., rain,snow,etc.),
thunder or fog.


VAZ048-049-060>072-079>083-181900-
CENTRAL AND SOUTH CENTRAL VIRGINIA
  
CITY           SKY/WX    TMP DP  RH WIND       PRES   REMARKS
RICHMOND       CLOUDY    63  59  87 E9        29.95S                  
CHESTERFIELD*  CLOUDY    60  50  69 E7        29.95F                  
PETERSBURG*    LGT RAIN  61  60  96 E5        29.95F                  
HANOVER        CLOUDY    63  60  90 E5        29.96F                  
TAPPAHANNOCK*  RAIN      61  61 100 E6        29.98S                  
QUINTON*       CLOUDY    61  60  97 E8        29.95F                  
CHARLOTTSVILLE CLOUDY    66  60  81 NE7       29.96F                  
GORDONSVILLE*  CLOUDY    62  61  95 NE3       29.96F                  
ORANGE*        CLOUDY    61  61 100 E3        29.98F FOG              
LOUISA*        CLOUDY    63  60  88 E5        29.96F                  
BUMPASS*       CLOUDY    62  60  93 SE8       29.97S                  
FARMVILLE*     CLOUDY    64  60  87 NE3       29.94S                  
CREWE*         CLOUDY    61  58  91 E5        29.95S                  
FORT PICKETT*  CLOUDY    61  61 100 E6        29.94F FOG              
CHASE CITY*    CLOUDY    64  64 100 N5        29.93F                  
CLARKSVILLE*   CLOUDY    64  64 100 N3        29.92F                  
SOUTH HILL*    CLOUDY    64  64  98 NE3       29.98S                  
LAWRENCEVILLE* CLOUDY    64  63  94 CALM      29.94S                  
EMPORIA*       DRIZZLE   63  62  97 CALM      29.94S                  
$$


SKY/WX - Weather  TMP - Temperature  DP - Dew Point  RH - Humidity
WIND - Wind Direction/Speed PRES - Barometric Pressure VSB - Visibility
WCI - Wind Chill Index E13G22 Wind - East Wind 13 mph/Gusts of 22 mph

Trending Headlines

Trending Entertainment Headlines

Macon Radar Loop

Use the map search tool if you want to place a location marker on the radar map...

Macon Quick Facts

National Two Day Weather Forecast


E-mail the Macon Weather Forecast

Voice your opinion or tell us about page issues...